Weather History for Wenatchee, WA

Change the Weather History Date:

Tuesday, June 25, 2013

  Actual Average Record
Temperature  
Mean Temperature 58 °F 69 °F  
Max Temperature 68 °F 81 °F 101 °F (1992)
Min Temperature 47 °F 57 °F 43 °F (1976)
Degree Days  
Heating Degree Days 7 1  
Month to date heating degree days 190 53  
Since 1 June heating degree days 190 53  
Since 1 July heating degree days 6798 5767  
Cooling Degree Days 0 5  
Month to date cooling degree days 6 82  
Year to date cooling degree days 10 229  
Since 1 June cooling degree days 6 82  
Growing Degree Days 10 (Base 50)    
Moisture  
Dew Point 50 °F    
Average Humidity 74    
Maximum Humidity 83    
Minimum Humidity 57    
Precipitation  
Precipitation 0.24 in 0.01 in 0.18 in (1980)
Month to date precipitation 2.83 0.53  
Year to date precipitation 7.62 4.18  
Snow  
Snow 0.00 in 0.00 in - ()
Month to date snowfall 0.0 0.0  
Since 1 June snowfall 0.0 0.0  
Snow Depth 0.00 in    
Sea Level Pressure  
Sea Level Pressure 29.76 in    
Wind  
Wind Speed 5 mph (NNW)    
Max Wind Speed 15 mph    
Max Gust Speed 20 mph    
Visibility 10 miles    
Events Rain    
T = Trace of Precipitation, MM = Missing Value Source: NWS Daily Summary

Daily Weather History Graph

Daily Weather History Graph

Search for Another Location

Airport:

Trip Planner

Search our weather history database for the weather conditions in past years. The results will help you decide how hot, cold, wet, or windy it might be!

Date:

Astronomy

Jun. 25, 2013 Rise Set
Actual Time 5:05 AM PDT 9:01 PM PDT
Civil Twilight 4:24 AM PDT 9:42 PM PDT
Nautical Twilight 3:29 AM PDT 10:37 PM PDT
Astronomical Twilight 2:02 AM PDT 12:04 AM PDT
Moon 10:35 PM PDT (6/25) 8:03 AM PDT (6/25)
Length of Visible Light 17h 17m
Length of Day
15h 56m
Waning Gibbous, 92% of the Moon is Illuminated
Jun 25
Waning Gibbous
Jun 29
Last Quarter
Jul 8
New
Jul 15
First Quarter
Jul 22
Full

Hourly Weather History & Observations

Time (PDT) Temp. Dew Point Humidity Pressure Visibility Wind Dir Wind Speed Gust Speed Precip Events Conditions
12:55 AM 55.0 °F 50.0 °F 83% 29.70 in 10.0 mi NW 5.8 mph - N/A   Clear
1:55 AM 54.0 °F 48.9 °F 83% 29.70 in 10.0 mi WNW 4.6 mph - N/A   Clear
2:55 AM 55.0 °F 48.9 °F 80% 29.71 in 10.0 mi NW 4.6 mph - N/A   Clear
3:55 AM 54.0 °F 48.9 °F 83% 29.72 in 10.0 mi West 3.5 mph - N/A   Overcast
4:55 AM 54.0 °F 48.9 °F 83% 29.73 in 10.0 mi Calm Calm - 0.00 in Rain Light Rain
5:55 AM 54.0 °F 48.0 °F 80% 29.73 in 10.0 mi WNW 5.8 mph - 0.00 in   Overcast
6:55 AM 55.0 °F 46.9 °F 74% 29.74 in 10.0 mi WNW 4.6 mph - N/A   Mostly Cloudy
7:55 AM 55.0 °F 48.0 °F 77% 29.76 in 10.0 mi North - - N/A   Overcast
8:55 AM 55.9 °F 48.0 °F 75% 29.78 in 10.0 mi Calm Calm - N/A   Overcast
9:55 AM 57.0 °F 51.1 °F 81% 29.77 in 10.0 mi Calm Calm - 0.00 in Rain Light Rain
10:55 AM 57.0 °F 52.0 °F 83% 29.77 in 10.0 mi ESE 4.6 mph - 0.01 in   Scattered Clouds
11:13 AM 57.2 °F 51.8 °F 82% 29.78 in 10.0 mi ESE 5.8 mph - N/A   Mostly Cloudy
11:55 AM 60.1 °F 53.1 °F 78% 29.77 in 10.0 mi ESE 9.2 mph - N/A   Scattered Clouds
12:55 PM 62.1 °F 50.0 °F 65% 29.77 in 10.0 mi ESE 11.5 mph 19.6 mph 0.01 in   Overcast
1:55 PM 64.0 °F 51.1 °F 63% 29.76 in 10.0 mi East 10.4 mph - N/A   Mostly Cloudy
2:55 PM 64.0 °F 51.1 °F 63% 29.76 in 10.0 mi ESE 11.5 mph - N/A   Mostly Cloudy
3:55 PM 66.9 °F 52.0 °F 59% 29.75 in 10.0 mi ESE 9.2 mph - N/A   Overcast
4:55 PM 66.9 °F 51.1 °F 57% 29.74 in 10.0 mi WNW 3.5 mph - N/A   Overcast
5:55 PM 66.9 °F 52.0 °F 59% 29.74 in 10.0 mi NW 15.0 mph - N/A   Scattered Clouds
6:55 PM 64.9 °F 51.1 °F 61% 29.75 in 10.0 mi West 6.9 mph - N/A   Mostly Cloudy
7:55 PM 61.0 °F 53.1 °F 75% 29.78 in 10.0 mi NNW 9.2 mph - 0.00 in Rain Light Rain
8:55 PM 61.0 °F 52.0 °F 72% 29.79 in 10.0 mi North - - 0.00 in   Mostly Cloudy
9:55 PM 60.1 °F 53.1 °F 78% 29.81 in 10.0 mi NNE 5.8 mph - N/A   Overcast
10:55 PM 59.0 °F 51.1 °F 75% 29.82 in 10.0 mi Calm Calm - N/A   Clear
11:55 PM 57.0 °F 50.0 °F 77% 29.83 in 10.0 mi NW 3.5 mph - N/A   Partly Cloudy